CW7536 Weather Reports


time (UTC)temp
C
wind
direction
speed
KPH
gust
KPH
rain 1hr
cm
rain 24hr
cm
rain mn
cm
humidity
%
barometer
mb
20260510141604 13 143 0.0 4.8 0.00 0.00 0.00 1 1013.5
20260510140053 13 271 0.0 1.6 0.00 0.00 0.00 1 1013.5
20260510134604 13 144 0.0 4.8 0.00 0.00 0.00 1 1013.4
20260510133044 13 250 0.0 1.6 0.00 0.00 0.00 1 1013.5
20260510131539 13 91 0.0 1.6 0.00 0.00 0.00 1 1013.5
20260510130036 12 143 0.0 1.6 0.00 0.00 0.00 1 1013.4
20260510124532 12 188 0.0 0.0 0.00 0.00 0.00 1 1013.0
20260510123026 11 286 0.0 0.0 0.00 0.00 0.00 1 1013.0
20260510121526 11 287 0.0 1.6 0.00 0.00 0.00 1 1013.0
20260510120025 11 285 0.0 1.6 0.00 0.00 0.00 1 1012.6
20260510114515 11 285 0.0 0.0 0.00 0.00 0.00 1 1012.6
20260510113008 11 285 0.0 0.0 0.00 0.00 0.00 1 1012.6
20260510111503 10 297 0.0 0.0 0.00 0.00 0.00 1 1012.5
20260510110100 10 297 0.0 1.6 0.00 0.00 0.00 1 1012.3
20260510104612 10 297 0.0 1.6 0.00 0.00 0.00 1 1012.1
20260510103051 10 47 0.0 0.0 0.00 0.00 0.00 1 1012.0
20260510101546 10 47 0.0 0.0 0.00 0.00 0.00 1 1011.9
20260510100042 10 58 0.0 0.0 0.00 0.00 0.00 1 1012.0
20260510094541 10 58 0.0 0.0 0.00 0.00 0.00 1 1012.1
20260510093033 10 58 0.0 0.0 0.00 0.00 0.00 1 1012.1
20260510091532 10 58 0.0 0.0 0.00 0.00 0.00 1 1012.0
20260510090025 10 58 0.0 0.0 0.00 0.00 0.00 1 1012.4
20260510084521 10 58 0.0 0.0 0.00 0.00 0.00 1 1012.5
20260510083015 10 58 0.0 0.0 0.00 0.00 0.00 1 1012.4
20260510081511 10 326 0.0 1.6 0.00 0.00 0.00 1 1012.2
20260510080007 10 60 0.0 0.0 0.00 0.00 0.00 1 1012.0
20260510074503 10 86 0.0 0.0 0.00 0.00 0.00 1 1011.5
20260510073058 10 86 0.0 0.0 0.00 0.00 0.00 1 1011.5
20260510071553 10 86 0.0 0.0 0.00 0.00 0.00 1 1011.4
20260510070055 10 86 0.0 0.0 0.00 0.00 0.00 1 1011.5
20260510064545 10 86 0.0 1.6 0.00 0.00 0.00 1 1011.6
20260510063040 10 88 0.0 1.6 0.00 0.00 0.00 1 1011.7
20260510061538 10 88 0.0 0.0 0.00 0.00 0.00 1 1011.5
20260510060045 10 88 0.0 0.0 0.00 0.00 0.00 1 1011.2
20260510054527 10 88 0.0 0.0 0.00 0.00 0.00 1 1011.4
20260510053022 10 87 0.0 0.0 0.00 0.00 0.00 1 1011.4
20260510051519 10 88 0.0 0.0 0.00 0.00 0.00 1 1011.3
20260510050018 10 88 0.0 0.0 0.00 0.00 0.00 1 1011.6
20260510044509 10 88 0.0 0.0 0.00 0.00 0.00 1 1011.6
20260510043006 10 88 0.0 1.6 0.00 0.00 0.00 1 1011.6
20260510041503 10 88 0.0 1.6 0.00 0.00 0.00 1 1011.7
20260510040057 10 88 0.0 0.0 0.00 0.00 0.00 1 1011.4
20260510034555 10 88 0.0 0.0 0.00 0.00 0.00 1 1011.4
20260510033050 10 88 0.0 0.0 0.00 0.00 0.00 1 1011.4
20260510031615 10 88 0.0 0.0 0.00 0.00 0.00 1 1011.3
20260510030040 10 88 0.0 0.0 0.00 0.00 0.00 1 1011.2
20260510024537 10 88 0.0 0.0 0.00 0.00 0.00 1 1011.2
20260510023042 10 88 0.0 0.0 0.00 0.00 0.00 1 1011.2
20260510021526 10 88 0.0 0.0 0.00 0.00 0.00 1 1011.3
20260510020021 11 88 0.0 0.0 0.00 0.00 0.00 1 1011.4
20260510014516 11 88 0.0 0.0 0.00 0.00 0.00 1 1011.1
20260510013013 11 88 0.0 0.0 0.00 0.00 0.00 1 1011.2
20260510011512 11 88 0.0 0.0 0.00 0.00 0.00 1 1011.2
20260510010010 11 88 0.0 0.0 0.00 0.00 0.00 1 1010.9
20260510004600 11 88 0.0 0.0 0.00 0.00 0.00 1 1010.6
20260510003101 11 88 0.0 0.0 0.00 0.00 0.00 1 1010.5
20260510001550 12 88 0.0 0.0 0.00 0.00 0.00 1 1010.5
20260510000049 12 88 0.0 0.0 0.00 0.00 0.00 1 1010.7
20260509234541 12 88 0.0 0.0 0.00 0.00 0.00 1 1010.5
20260509233039 12 88 0.0 0.0 0.00 0.00 0.00 1 1010.4
20260509231534 13 88 0.0 0.0 0.00 0.00 0.00 1 1010.3
20260509230030 13 88 0.0 0.0 0.00 0.00 0.00 1 1010.4
20260509224526 13 112 0.0 1.6 0.00 0.00 0.00 1 1010.4
20260509223026 13 113 0.0 1.6 0.00 0.00 0.00 1 1010.8
20260509221517 13 113 0.0 1.6 0.00 0.00 0.00 1 1010.7
20260509220014 13 113 0.0 1.6 0.00 0.00 0.00 1 1010.8
20260509214508 13 91 0.0 0.0 0.00 0.00 0.00 1 1010.8
20260509213008 13 91 0.0 1.6 0.00 0.00 0.00 1 1010.9
20260509211507 13 87 0.0 0.0 0.00 0.00 0.00 1 1010.9
20260509210004 13 88 0.0 0.0 0.00 0.00 0.00 1 1010.9
20260509204604 13 85 0.0 0.0 0.00 0.00 0.00 1 1010.8
20260509203100 13 85 0.0 1.6 0.00 0.00 0.00 1 1010.8
20260509201551 13 87 0.0 1.6 0.00 0.00 0.00 1 1010.8
20260509200047 13 281 0.0 0.0 0.00 0.00 0.00 1 1011.0
20260509194544 13 281 0.0 1.6 0.00 0.00 0.00 1 1011.3
20260509193038 13 281 0.0 3.2 0.00 0.00 0.00 1 1011.5
20260509191533 13 243 0.0 8.0 0.00 0.00 0.00 1 1011.4
20260509190029 14 274 0.0 1.6 0.00 0.00 0.00 1 1011.2
20260509184525 13 262 0.0 1.6 0.00 0.00 0.00 1 1011.4
20260509183022 13 238 0.0 3.2 0.00 0.00 0.00 1 1011.0
20260509181516 14 247 0.0 9.7 0.00 0.00 0.00 1 1011.4
20260509180011 15 288 1.6 4.8 0.00 0.00 0.00 1 1011.5
20260509174508 16 264 0.0 4.8 0.00 0.00 0.00 10 1011.4
20260509173002 17 238 0.0 8.0 0.00 0.00 0.00 40 1011.3
20260509171608 18 252 0.0 4.8 0.00 0.00 0.00 43 1010.9
20260509170054 17 244 0.0 6.4 0.00 0.00 0.00 41 1011.0
20260509164551 17 231 0.0 3.2 0.00 0.00 0.00 42 1011.1
20260509163056 17 262 0.0 1.6 0.00 0.00 0.00 39 1011.3
20260509161542 17 295 0.0 8.0 0.00 0.00 0.00 42 1011.5
20260509160039 17 231 1.6 6.4 0.00 0.00 0.00 42 1011.8
20260509154536 16 211 0.0 11.3 0.00 0.00 0.00 36 1012.1
20260509153029 16 237 0.0 3.2 0.00 0.00 0.00 31 1012.0
20260509151524 15 243 0.0 4.8 0.00 0.00 0.00 16 1012.0
20260509150020 15 245 3.2 8.0 0.00 0.00 0.00 10 1012.1
20260509144515 14 268 1.6 8.0 0.00 0.00 0.00 3 1012.1
20260509143010 14 254 1.6 9.7 0.00 0.00 0.00 7 1012.3